Location: Newark
(45.4422°N, 16.2769°E)
Time: 18:27:58
(UTC+00:00)

Tiros 1 despin weight - Pass Details

Date: 18 December 2019
Orbit: 593 x 643 km, 48.2° (Epoch: 20 January)

Event Time Altitude Azimuth Distance (km) Brightness Sun altitude
Rises 03:39:34 0° 274° (W) 2,898 - -28.7°
Reaches altitude 10° 03:41:56 10° 278° (W) 1,984 - -28.3°
Maximum altitude 03:46:26 60° 359° (N) 702 - -27.5°
Exits shadow 03:47:29 46° 51° (NE) 821 ? -27.4°
Drops below altitude 10° 03:50:53 10° 80° (E) 1,953 ? -26.8°
Sets 03:53:11 0° 84° (E) 2,849 ? -26.4°
